Total_Precipitation_Accumulation
2.30 2.42 3.59 3.59 3.32 3.23 3.10 3.11 3.12 3.20 3.28 3.19 2.90 2.75 2.70 2.67 2.65 2.59 2.37 2.25 2.27 2.42 2.47 2.62 2.69 2.62 2.68 2.71 2.74 2.80 2.87 3.04 3.12 3.01 2.85 2.70 2.77 2.95 3.03 3.05 2.90 2.83 3.33
1.86 2.30 3.44 3.42 3.24 3.06 2.95 3.00 2.94 2.92 2.98 2.97 2.96 2.76 2.68 2.61 2.56 2.38 2.27 2.27 2.31 2.38 2.40 2.50 2.57 2.58 2.61 2.68 2.80 2.95 3.02 3.05 3.14 3.06 3.05 2.92 2.99 3.05 3.03 3.00 3.05 3.06 3.18
1.61 1.90 2.58 3.37 3.24 3.01 2.97 3.02 2.95 2.92 2.73 2.62 2.65 2.56 2.49 2.48 2.44 2.36 2.38 2.37 2.43 2.34 2.22 2.41 2.70 2.70 2.66 2.69 2.78 2.94 3.00 2.98 2.98 3.10 3.56 3.76 3.48 3.39 3.03 2.97 3.00 2.90 2.89
1.45 1.68 2.05 3.02 3.02 2.99 2.99 2.82 2.78 2.63 2.36 2.27 2.34 2.30 2.30 2.39 2.57 2.64 2.61 2.59 2.59 2.35 2.15 2.21 2.61 2.68 2.62 2.48 2.34 2.47 2.64 2.78 2.95 3.21 3.54 3.98 3.88 3.63 3.24 3.05 2.99 2.85 2.76
1.49 1.77 2.52 3.17 2.98 2.95 2.83 2.63 2.60 2.51 2.30 2.19 2.17 2.18 2.30 2.53 2.67 2.69 2.74 2.68 2.59 2.36 2.22 2.29 2.66 2.56 2.49 2.41 2.26 2.32 2.41 2.62 2.94 2.77 3.04 3.49 3.98 4.10 3.40 3.09 3.05 3.04 3.05
1.55 1.82 2.55 2.99 2.74 2.63 2.59 2.52 2.42 2.46 2.47 2.26 2.10 2.18 2.44 2.82 2.85 2.88 2.89 2.61 2.52 2.39 2.40 2.46 2.62 2.57 2.49 2.46 2.38 2.25 2.31 2.59 2.49 2.40 2.83 3.24 3.60 3.84 3.30 3.08 3.09 3.20 3.27
1.35 1.54 2.14 2.73 2.51 2.40 2.38 2.37 2.28 2.34 2.46 2.36 2.15 2.31 2.60 2.97 3.03 2.96 2.78 2.52 2.50 2.48 2.55 2.72 2.72 2.73 2.61 2.46 2.45 2.33 2.29 2.37 2.09 2.32 2.79 3.24 3.37 3.39 3.25 3.09 2.99 3.22 3.44
1.33 1.32 1.59 2.19 2.35 2.22 2.21 2.34 2.28 2.26 2.34 2.28 2.21 2.26 2.46 2.94 3.01 2.94 2.77 2.56 2.44 2.50 2.71 3.00 2.91 2.76 2.54 2.44 2.49 2.56 2.51 2.19 1.78 1.91 2.30 3.08 3.71 3.53 3.20 3.00 2.98 3.08 3.30
1.62 1.49 1.40 1.50 1.75 1.96 2.09 2.23 2.25 2.21 2.14 2.05 2.16 2.25 2.61 3.10 2.93 2.78 2.71 2.63 2.55 2.62 2.71 2.88 2.75 2.59 2.54 2.53 2.51 2.56 2.59 2.41 2.03 1.95 1.95 2.82 3.69 3.66 3.19 2.95 2.87 3.00 3.11
1.74 1.59 1.36 1.26 1.32 1.56 1.69 1.88 2.13 2.18 2.08 1.95 2.03 2.21 2.54 3.06 2.87 2.65 2.52 2.71 2.92 3.02 3.09 3.08 2.81 2.59 2.57 2.45 2.42 2.58 2.58 2.28 1.96 1.83 2.12 2.86 3.83 3.94 3.56 2.98 2.74 2.73 2.79
1.55 1.42 1.28 1.21 1.27 1.39 1.52 1.60 1.98 2.03 1.90 1.71 1.70 2.00 2.16 2.44 2.46 2.51 2.59 2.92 2.94 2.95 3.04 3.10 3.02 2.74 2.42 2.29 2.40 2.46 2.24 1.96 2.01 1.95 2.42 3.29 3.85 3.93 3.75 3.29 2.78 2.48 2.41
1.24 1.11 1.07 1.04 1.12 1.25 1.30 1.68 2.02 1.80 1.71 1.49 1.52 1.60 1.78 2.16 2.47 2.21 2.50 2.98 2.93 2.84 2.76 2.90 2.89 2.48 1.97 1.68 1.95 1.98 1.80 1.94 2.10 1.98 2.62 3.50 3.89 3.89 3.60 3.41 2.91 2.58 2.38
0.98 0.89 0.83 0.76 0.76 0.84 1.10 1.45 1.78 1.92 1.92 1.91 1.73 1.64 1.74 1.67 1.82 1.73 1.72 1.93 2.03 2.07 2.01 2.16 2.28 1.98 1.69 1.61 1.64 1.65 1.82 1.92 2.29 2.29 2.83 3.54 3.89 3.99 3.72 3.54 3.08 2.71 2.57
0.90 0.85 0.76 0.72 0.68 0.69 0.78 0.99 1.24 1.40 1.51 1.60 1.52 1.40 1.57 1.55 1.61 1.64 1.57 1.48 1.43 1.51 1.67 1.72 1.88 1.87 1.67 1.56 1.56 1.68 1.78 1.85 2.13 2.57 3.10 3.29 3.64 4.00 3.86 3.62 3.28 3.02 2.84
1.02 0.98 0.88 0.77 0.74 0.74 0.80 0.86 0.95 1.11 1.23 1.27 1.35 1.32 1.39 1.55 1.61 1.59 1.43 1.35 1.24 1.31 1.45 1.56 1.61 1.69 1.74 1.69 1.59 1.73 1.80 1.95 2.07 2.22 2.64 2.92 3.20 3.79 4.14 4.01 3.65 3.37 3.23
1.12 1.05 1.01 0.90 0.87 0.84 0.81 0.84 0.91 0.99 1.03 1.05 1.06 1.08 1.24 1.47 1.50 1.55 1.48 1.46 1.39 1.38 1.48 1.47 1.41 1.58 1.76 1.71 1.59 1.56 1.61 1.76 1.93 1.97 2.18 2.46 2.77 3.19 3.97 4.36 4.22 3.95 3.94
1.08 1.01 1.02 1.01 1.02 1.01 0.98 0.91 0.89 1.01 1.10 1.06 1.02 0.95 1.00 1.21 1.31 1.40 1.42 1.36 1.37 1.47 1.52 1.57 1.41 1.46 1.52 1.55 1.58 1.55 1.48 1.56 1.65 1.73 1.69 1.80 2.01 2.46 3.21 3.97 4.46 4.46 4.47
0.90 0.89 0.95 0.93 0.98 1.04 1.05 1.05 1.08 1.08 1.15 1.09 1.07 1.00 0.96 1.05 1.18 1.34 1.37 1.31 1.30 1.47 1.62 1.71 1.61 1.60 1.58 1.59 1.62 1.64 1.55 1.57 1.48 1.56 1.60 1.55 1.77 1.81 2.30 3.02 3.62 3.92 4.30
0.81 0.83 0.84 0.87 0.86 0.94 1.01 1.03 1.15 1.19 1.22 1.17 1.15 1.06 1.04 1.11 1.25 1.44 1.56 1.55 1.50 1.52 1.57 1.56 1.66 1.69 1.69 1.70 1.63 1.62 1.62 1.59 1.63 1.52 1.59 1.61 1.57 1.69 1.92 2.24 2.73 3.16 3.58
0.78 0.79 0.77 0.80 0.81 0.85 0.98 1.07 1.26 1.40 1.40 1.40 1.29 1.20 1.23 1.39 1.56 1.72 1.73 1.82 1.85 1.77 1.76 1.72 1.78 1.76 1.69 1.77 1.63 1.54 1.55 1.49 1.65 1.75 1.73 1.76 1.67 1.61 1.98 2.23 2.29 2.35 2.86
0.73 0.76 0.77 0.75 0.81 0.85 0.90 1.04 1.29 1.55 1.66 1.79 1.68 1.45 1.38 1.51 1.82 2.10 2.07 2.14 2.21 2.15 2.11 2.08 2.31 2.26 2.00 1.82 1.92 1.79 1.64 1.52 1.72 1.79 1.80 1.95 1.94 2.00 2.23 2.27 2.13 2.06 2.07
0.60 0.67 0.72 0.72 0.79 0.82 0.87 1.05 1.23 1.39 1.39 1.55 1.67 1.61 1.51 1.50 1.69 1.88 2.19 2.34 2.30 2.44 2.54 2.50 2.86 3.00 2.49 2.06 2.21 2.50 2.25 2.08 1.88 1.72 1.78 1.91 2.10 2.28 2.36 2.23 2.07 1.94 1.87
0.51 0.51 0.56 0.62 0.71 0.83 0.95 1.16 1.38 1.61 1.69 1.69 1.59 1.67 1.67 1.57 1.64 1.78 1.95 2.13 2.19 2.35 2.52 2.63 2.94 3.48 3.24 2.56 2.37 2.84 2.66 2.49 2.35 1.99 1.80 1.82 1.96 2.27 2.53 2.46 2.22 2.00 1.83
0.50 0.51 0.55 0.65 0.80 1.00 1.19 1.40 1.61 1.80 1.86 1.72 1.71 1.74 1.62 1.53 1.51 1.63 1.77 1.91 2.06 2.14 2.33 2.42 2.53 3.11 3.52 3.18 2.87 2.56 2.26 2.26 2.47 2.46 2.08 1.88 1.87 2.05 2.31 2.32 2.18 2.14 1.99
0.62 0.68 0.73 0.88 1.11 1.35 1.55 1.80 2.08 2.05 1.94 1.85 1.77 1.73 1.68 1.66 1.60 1.61 1.78 1.85 1.87 1.98 2.15 2.48 2.75 3.03 3.28 3.32 3.29 3.05 2.73 2.44 2.11 2.42 2.53 2.19 2.04 1.98 2.06 2.15 2.08 2.07 2.07
0.94 1.09 1.29 1.52 1.66 1.76 1.87 2.00 2.11 2.08 2.09 2.05 1.84 1.72 1.70 1.73 1.77 1.76 1.81 1.84 1.81 1.86 2.00 2.29 2.62 2.86 3.17 3.41 3.38 3.16 3.01 2.87 2.60 2.54 2.45 2.31 2.32 2.16 2.01 1.98 1.88 1.90 2.06